Abilene Dyess, TX

7:09 AM CDT on June 27, 2017 (GMT -0500)
Dyess Air Force Base

Weather History for KDYS - February, 2013

Change the Weather History Date:

Thursday, February 21, 2013

  Actual Average Record
Temperature  
Mean Temperature 51 °F -  
Max Temperature 62 °F 59 °F 80 °F (2007)
Min Temperature 37 °F 38 °F 21 °F (2009)
Degree Days  
Heating Degree Days 14    
Growing Degree Days 1 (Base 50)    
Moisture  
Dew Point 40 °F    
Average Humidity 81    
Maximum Humidity 100    
Minimum Humidity 28    
Precipitation  
Precipitation 0.13 in - - ()
Sea Level Pressure  
Sea Level Pressure 29.67 in    
Wind  
Wind Speed 14 mph (WNW)    
Max Wind Speed 31 mph    
Max Gust Speed 40 mph    
Visibility 7 miles    
Events Rain , Thunderstorm    
Averages and records for this station are not official NWS values.
T = Trace of Precipitation, MM = Missing Value Source: NWS Daily Summary

Daily Weather History Graph

Daily Weather History Graph

Search for Another Location

Airport or City:

Trip Planner

Search our weather history database for the weather conditions in past years. The results will help you decide how hot, cold, wet, or windy it might be!

Date:

Astronomy

Feb. 21, 2013 Rise Set
Actual Time 7:15 AM CST 6:30 PM CST
Civil Twilight 6:50 AM CST 6:55 PM CST
Nautical Twilight 6:22 AM CST 7:24 PM CST
Astronomical Twilight 5:53 AM CST 7:52 PM CST
Moon 2:55 PM CST (2/21) 4:12 AM CST (2/21)
Length of Visible Light 12h 04m
Length of Day
11h 15m
Waxing Gibbous, 84% of the Moon is Illuminated
Feb 21
Waxing Gibbous
Feb 25
Full
Mar 4
Last Quarter
Mar 11
New
Mar 19
First Quarter

Hourly Weather History & Observations

Time (CST) Temp. Windchill Dew Point Humidity Pressure Visibility Wind Dir Wind Speed Gust Speed Precip Events Conditions
12:44 AM 44.6 °F 36.4 °F 42.8 °F 93% 29.58 in 9.0 mi ESE 20.7 mph - N/A   Overcast
12:55 AM 44.4 °F 36.4 °F 43.2 °F 95% 29.57 in 8.0 mi ESE 19.6 mph 25.3 mph N/A   Overcast
1:55 AM 45.3 °F 40.1 °F 44.6 °F 97% 29.56 in 4.0 mi ESE 10.4 mph - N/A   Overcast
2:10 AM 44.6 °F 40.7 °F 44.6 °F 100% 29.56 in 2.5 mi East 6.9 mph - N/A   Overcast
2:37 AM 46.4 °F 43.5 °F 46.4 °F 100% 29.57 in 2.0 mi ENE 5.8 mph - N/A   Overcast
2:47 AM 46.4 °F 42.4 °F 46.4 °F 100% 29.57 in 1.8 mi ESE 8.1 mph - N/A   Overcast
2:55 AM 46.4 °F 40.7 °F 46.2 °F 99% 29.56 in 1.8 mi ESE 12.7 mph - N/A   Overcast
3:00 AM 46.4 °F 40.1 °F 46.4 °F 100% 29.54 in 2.0 mi ESE 15.0 mph - N/A   Overcast
3:03 AM 46.4 °F 41.1 °F 46.4 °F 100% 29.54 in 1.8 mi ESE 11.5 mph - N/A   Overcast
3:10 AM 46.4 °F 41.5 °F 46.4 °F 100% 29.53 in 1.5 mi SE 10.4 mph - N/A   Overcast
3:14 AM 46.4 °F 40.7 °F 46.4 °F 100% 29.53 in 1.8 mi SSE 12.7 mph - N/A   Overcast
3:19 AM 46.4 °F 41.9 °F 46.4 °F 100% 29.54 in 2.0 mi South 9.2 mph - N/A   Overcast
3:24 AM 48.2 °F - 48.2 °F 100% 29.56 in 2.5 mi West 10.4 mph - N/A   Overcast
3:34 AM 46.4 °F 43.5 °F 46.4 °F 100% 29.55 in 2.0 mi WSW 5.8 mph - N/A   Overcast
3:39 AM 46.4 °F 40.4 °F 46.4 °F 100% 29.56 in 2.5 mi WNW 13.8 mph - N/A   Overcast
3:43 AM 48.2 °F - 48.2 °F 100% 29.55 in 3.0 mi Variable 6.9 mph - N/A   Overcast
3:55 AM 49.3 °F - 49.3 °F 100% 29.53 in 5.0 mi SSE 10.4 mph - N/A   Overcast
4:03 AM 50.0 °F - 50.0 °F 100% 29.58 in 2.0 mi WNW 18.4 mph 26.5 mph N/A Rain , Thunderstorm Light Thunderstorms and Rain
4:14 AM 50.0 °F - 50.0 °F 100% 29.57 in 3.0 mi WNW 21.9 mph 29.9 mph N/A Rain , Thunderstorm Light Thunderstorms and Rain
4:23 AM 46.4 °F 37.9 °F 44.6 °F 93% 29.60 in 10.0 mi WNW 25.3 mph 31.1 mph N/A Rain Light Rain
4:27 AM 44.6 °F 36.4 °F 44.6 °F 100% 29.61 in 10.0 mi NW 20.7 mph 31.1 mph N/A   Overcast
4:40 AM 42.8 °F 34.0 °F 41.0 °F 93% 29.63 in 10.0 mi NW 20.7 mph 28.8 mph N/A   Overcast
4:55 AM 42.4 °F 34.1 °F 41.2 °F 95% 29.64 in 10.0 mi NW 18.4 mph 28.8 mph 0.11 in   Overcast
5:19 AM 41.0 °F 33.5 °F 41.0 °F 100% 29.68 in 10.0 mi NW 13.8 mph - N/A   Overcast
5:55 AM 41.4 °F 34.3 °F 39.6 °F 93% 29.69 in 10.0 mi NW 12.7 mph - N/A   Overcast
6:55 AM 41.0 °F 37.1 °F 39.0 °F 93% 29.71 in 10.0 mi NW 5.8 mph - N/A   Overcast
7:09 AM 41.0 °F 38.0 °F 39.2 °F 93% 29.72 in 10.0 mi NW 4.6 mph - N/A   Overcast
7:15 AM 41.0 °F 38.0 °F 39.2 °F 93% 29.72 in 10.0 mi NW 4.6 mph - N/A   Overcast
7:41 AM 41.0 °F 39.0 °F 39.2 °F 93% 29.72 in 10.0 mi WNW 3.5 mph - N/A   Mostly Cloudy
7:55 AM 41.0 °F 37.1 °F 39.0 °F 93% 29.73 in 10.0 mi West 5.8 mph - N/A   Mostly Cloudy
8:18 AM 41.0 °F 36.4 °F 39.2 °F 93% 29.74 in 10.0 mi West 6.9 mph - N/A   Scattered Clouds
8:33 AM 41.0 °F 36.4 °F 39.2 °F 93% 29.74 in 10.0 mi WSW 6.9 mph - N/A   Partly Cloudy
8:55 AM 43.3 °F 38.6 °F 40.5 °F 90% 29.74 in 10.0 mi SW 8.1 mph - N/A   Clear
9:55 AM 50.9 °F - 32.4 °F 49% 29.72 in 10.0 mi West 18.4 mph 26.5 mph N/A   Clear
10:55 AM 53.2 °F - 28.8 °F 39% 29.72 in 10.0 mi WSW 25.3 mph 35.7 mph N/A   Clear
11:55 AM 55.8 °F - 26.2 °F 32% 29.72 in 10.0 mi WSW 31.1 mph 38.0 mph N/A   Clear
12:55 PM 57.0 °F - 24.8 °F 29% 29.71 in 10.0 mi West 28.8 mph 40.3 mph 0.01 in   Clear
1:55 PM 58.8 °F - 26.4 °F 29% 29.69 in 10.0 mi West 25.3 mph 32.2 mph 0.01 in   Clear
2:55 PM 61.2 °F - 28.6 °F 29% 29.70 in 10.0 mi West 26.5 mph 34.5 mph N/A   Clear
3:55 PM 61.5 °F - 28.6 °F 29% 29.71 in 10.0 mi WNW 18.4 mph 31.1 mph N/A   Clear
4:55 PM 62.1 °F - 28.2 °F 28% 29.72 in 10.0 mi WNW 24.2 mph - N/A   Clear
5:55 PM 60.8 °F - 30.0 °F 31% 29.74 in 10.0 mi West 12.7 mph - N/A   Clear
6:55 PM 53.6 °F - 38.3 °F 56% 29.80 in 10.0 mi NNE 10.4 mph - N/A   Clear
7:55 PM 50.0 °F - 36.5 °F 60% 29.86 in 10.0 mi NNE 9.2 mph - N/A   Clear
8:55 PM 47.1 °F - 35.8 °F 65% 29.90 in 10.0 mi NNE 9.2 mph - N/A   Clear
9:55 PM 42.8 °F 37.0 °F 32.2 °F 66% 29.93 in 10.0 mi NNE 10.4 mph - N/A   Clear
10:55 PM 40.5 °F 33.6 °F 32.4 °F 73% 29.94 in 10.0 mi North 11.5 mph - N/A   Clear
11:55 PM 37.2 °F 31.2 °F 30.9 °F 78% 29.95 in 10.0 mi NNE 8.1 mph - N/A   Partly Cloudy